Weather in Hamilton

Bermuda     32°17′38″N   64°47′08″W
temp.,
°C
wind,
m/s
gust,
m/s
humid.,
%
clouds,
%
prec.,
mm/h
press.,
hPa
HPBL,
m
11 may, tue
tue1100:00+22s678597 0.1 1023321
03:00+22ssw71082100 0.3 1021261
06:00+22ssw7108314 0.0 1020256
09:00+22ssw81189100 0.3 1022401
12:00+22ssw81289100 0.1 1022431
15:00+22sw81287100 1.6 1021355
18:00+22wsw6986100 1.5 1020195
21:00+22sw6987100 1.6 1021205
12 may, wed
wed1200:00+22sw698820 0.1 1021229
03:00+22sw7109117 0.3 1020318
06:00+22sw710925 0.1 1019366
09:00+22wsw7119019 0.9 1021358
12:00+22wsw6109172 0.1 1021367
15:00+22wsw6991100 0.6 1021393
18:00+22wsw5789100 0.5 1020274
21:00+22sw4589100 0.6 1021116
13 may, thu
thu1300:00+22sw5790100 0.0 1020226
03:00+22sw71090100 0.4 1019356
06:00+22sw8129296 0.5 1018446
09:00+22sw9139148 1.0 1018474
12:00+22wsw10148399 1.9 1018411
15:00+22w6987100 3.2 1018322
18:00+21nnw5590100 0.4 1017351
21:00+20nne9890100 0.4 1020573
14 may, fri
fri1400:00+20ne6684100 0.0 1020578
03:00+20ne5682100 0.1 1019720
06:00+20ne8885100 0.3 1019689
09:00+20ene8885100 0.8 1020670
12:00+20ene9883100 0.4 1020735
15:00+21ene101082100 0.9 1020780
18:00+20ene91088100 1.4 1019690
21:00+20ene91089100 4.4 1019623
15 may, sat
sat1500:00+20ene91087100 0.6 1018681
03:00+20ene8991100 5.1 1017569
06:00+20ne91088100 4.4 1017694
09:00+20ne9982100 6.2 1019792
12:00+20ne101077100 0.7 1020932
15:00+20ne997537 0.8 1020927
18:00+20ne997198 0.1 1020969
21:00+20ne9869100 0.1 1021765